M I D A S
Marine Information and Data Acquisition System
Tripno 1791 of the Zeeleeuw from 2009-09-28 09:58:56 to 2009-09-28 15:36:03
Back to CruiseResearch ActivitiesStationsMapUnderway DataData graphs

EquipmentUnitsComment
TimeDGPSUTC
LatitudeDGPSDM.mWGS84
LongitudeDGPSDM.mWGS84
TemperatureSBE03/SBE38deg celciusITS90
ConductivitySBE21S/mITS90
SalinitySBE21 Practical Salinity Units
ChlorophylAChelsea fluorimeterg/lCalibrated in Aceton
Missing or incorrect values are displayed as -999
Sea surface data collected by the RV Zeeleeuw from 2009-09-28 09:57:43 to 2009-09-28 15:41:13
Time Latitude Longitude Temperature Conductivity Salinity ChlorophylA
2009-09-28 09:58:52 51°13.674 2°55.918 19.1789 0.026154 0.145699 3.422087
2009-09-28 09:59:52 51°13.69 2°55.853 19.1845 0.026257 0.146284 3.422087
2009-09-28 10:00:51 51°13.7 2°55.792 19.1999 0.026257 0.146284 3.422087
2009-09-28 10:01:50 51°13.707 2°55.798 19.1865 0.026257 0.146289 3.422087
2009-09-28 10:02:51 51°13.702 2°55.789 19.2331 0.026257 0.146334 3.422087
2009-09-28 10:03:50 51°13.706 2°55.793 19.2183 0.026257 0.146304 3.422087
2009-09-28 10:04:51 51°13.717 2°55.775 19.2238 0.026257 0.146332 3.422087
2009-09-28 10:05:49 51°13.76 2°55.705 19.1948 0.026257 0.146314 3.456911
2009-09-28 10:06:48 51°13.836 2°55.632 19.2152 0.026257 0.146289 3.456911
2009-09-28 10:07:48 51°13.933 2°55.562 19.2353 0.026257 0.146286 3.456911
2009-09-28 10:08:48 51°14.033 2°55.491 19.2387 0.026257 0.146286 3.456911
2009-09-28 10:09:48 51°14.135 2°55.414 19.2798 0.026257 0.146299 3.456911
2009-09-28 10:10:48 51°14.232 2°55.295 19.2849 0.026257 0.146289 3.456911
2009-09-28 10:11:48 51°14.325 2°55.137 19.2745 0.026257 0.146306 3.456911
2009-09-28 10:12:48 51°14.423 2°54.977 19.2919 0.026257 0.146329 3.456911
2009-09-28 10:13:48 51°14.559 2°54.843 19.3165 0.026257 0.146357 3.456911
2009-09-28 10:14:48 51°14.718 2°54.723 19.3079 0.026257 0.14636 3.456911
2009-09-28 10:15:48 51°14.883 2°54.597 19.3162 0.026257 0.146357 3.456911
2009-09-28 10:16:48 51°15.045 2°54.457 19.3145 0.026257 0.146372 3.456911
2009-09-28 10:17:48 51°15.201 2°54.308 19.3401 0.026257 0.146385 3.456911
2009-09-28 10:18:48 51°15.361 2°54.168 19.3324 0.026257 0.14639 3.456911
2009-09-28 10:19:48 51°15.521 2°54.027 19.3705 0.026257 0.146377 3.456911
2009-09-28 10:20:48 51°15.681 2°53.886 19.3636 0.026257 0.146388 3.491735
2009-09-28 10:21:48 51°15.841 2°53.743 19.3688 0.026257 0.146395 3.456911
2009-09-28 10:22:48 51°16.001 2°53.601 19.3927 0.026257 0.146375 3.491735
2009-09-28 10:23:48 51°16.162 2°53.459 19.3969 0.026257 0.146372 3.491735
2009-09-28 10:24:48 51°16.324 2°53.317 19.3996 0.026257 0.14637 3.491735
2009-09-28 10:25:48 51°16.485 2°53.175 19.4059 0.026257 0.146344 3.491735
2009-09-28 10:26:48 51°16.646 2°53.032 19.4186 0.026257 0.146337 3.491735
2009-09-28 10:27:48 51°16.808 2°52.894 19.4402 0.026257 0.146327 3.491735
2009-09-28 10:28:48 51°16.97 2°52.754 19.4386 0.026257 0.146291 3.491735
2009-09-28 10:29:48 51°17.14 2°52.635 19.4451 0.02636 0.146861 3.491735
2009-09-28 10:30:48 51°17.318 2°52.553 19.4499 0.02636 0.146815 3.526559
2009-09-28 10:31:48 51°17.503 2°52.561 19.4787 0.026463 0.147408 3.526559
2009-09-28 10:32:48 51°17.69 2°52.594 19.4816 0.02636 0.14682 3.526559
2009-09-28 10:33:48 51°17.879 2°52.626 19.4839 0.026463 0.147382 3.526559
2009-09-28 10:34:48 51°18.068 2°52.653 19.5027 0.026463 0.147362 3.561383
2009-09-28 10:35:48 51°18.258 2°52.675 19.5185 0.026463 0.147354 3.561383
2009-09-28 10:36:48 51°18.447 2°52.694 19.5295 0.026463 0.147372 3.561383
2009-09-28 10:37:48 51°18.637 2°52.713 19.519 0.026463 0.147364 3.561383
2009-09-28 10:38:48 51°18.825 2°52.73 19.5318 0.026463 0.147336 3.596207
2009-09-28 10:39:48 51°19.013 2°52.748 19.5563 0.026463 0.147349 3.561383
2009-09-28 10:40:48 51°19.203 2°52.767 19.5745 0.026463 0.147352 3.596207
2009-09-28 10:41:48 51°19.393 2°52.788 19.5892 0.026463 0.147339 3.596207
2009-09-28 10:42:48 51°19.581 2°52.824 19.5904 0.026463 0.147347 3.596207
2009-09-28 10:43:48 51°19.767 2°52.888 19.6153 0.026463 0.147372 3.596207
2009-09-28 10:44:48 51°19.953 2°52.953 19.6272 0.026463 0.147344 3.631031
2009-09-28 10:45:48 51°20.139 2°53.018 19.6291 0.026463 0.147352 3.631031
2009-09-28 10:46:48 51°20.324 2°53.081 19.6338 0.026463 0.147334 3.631031
2009-09-28 10:47:48 51°20.51 2°53.142 19.6606 0.026463 0.147357 3.665855
2009-09-28 10:48:48 51°20.695 2°53.203 19.6542 0.026463 0.147341 3.665855
2009-09-28 10:49:48 51°20.881 2°53.252 19.6816 0.026463 0.147359 3.665855
2009-09-28 10:50:48 51°21.068 2°53.294 19.6885 0.026463 0.147339 3.665855
2009-09-28 10:51:48 51°21.255 2°53.336 19.69 0.026463 0.147341 3.665855
2009-09-28 10:52:48 51°21.442 2°53.373 19.7119 0.026463 0.147326 3.700679
2009-09-28 10:53:48 51°21.629 2°53.412 19.7282 0.026463 0.147329 3.700679
2009-09-28 10:54:48 51°21.815 2°53.452 19.7428 0.026463 0.147341 3.700679
2009-09-28 10:55:48 51°22.004 2°53.487 19.7553 0.026463 0.147334 3.735503
2009-09-28 10:56:48 51°22.189 2°53.528 19.7769 0.026463 0.147326 3.735503
2009-09-28 10:57:48 51°22.376 2°53.57 19.7889 0.026463 0.147321 3.735503
2009-09-28 10:58:48 51°22.563 2°53.613 19.7931 0.026463 0.147349 3.735503
2009-09-28 10:59:48 51°22.749 2°53.655 19.7866 0.026463 0.147334 3.770327
2009-09-28 11:01:02 51°22.981 2°53.709 19.821 0.026463 0.147336 3.770327
2009-09-28 11:02:02 51°23.168 2°53.751 19.8416 0.026463 0.147349 3.770327
2009-09-28 11:03:02 51°23.356 2°53.797 19.8482 0.026463 0.147352 3.805151
2009-09-28 11:04:02 51°23.545 2°53.843 19.8628 0.026463 0.147352 3.805151
2009-09-28 11:05:02 51°23.733 2°53.887 19.8821 0.026463 0.147369 3.805151
2009-09-28 11:06:02 51°23.922 2°53.909 19.8853 0.026463 0.147372 3.805151
2009-09-28 11:07:02 51°24.113 2°53.91 19.909 0.026463 0.147354 3.839975
2009-09-28 11:08:02 51°24.303 2°53.913 19.9273 0.026463 0.147357 3.839975
2009-09-28 11:09:02 51°24.493 2°53.917 19.9395 0.026566 0.147944 3.839975
2009-09-28 11:10:02 51°24.681 2°53.944 19.9341 0.026566 0.147931 3.839975
2009-09-28 11:11:02 51°24.871 2°53.977 19.9627 0.026463 0.147349 3.874799
2009-09-28 11:12:02 51°25.062 2°54.015 19.9891 0.026463 0.147357 3.874799
2009-09-28 11:13:02 51°25.254 2°54.053 20.0011 0.026566 0.147931 3.874799
2009-09-28 11:14:02 51°25.444 2°54.091 20.0206 0.026566 0.147924 3.909623
2009-09-28 11:15:02 51°25.633 2°54.127 20.0378 0.026566 0.147926 3.909623
2009-09-28 11:16:02 51°25.819 2°54.164 20.0468 0.026566 0.147924 3.909623
2009-09-28 11:17:02 51°26.006 2°54.197 20.0445 0.026566 0.147914 3.909623
2009-09-28 11:18:02 51°26.192 2°54.231 20.0791 0.026566 0.147911 3.944447
2009-09-28 11:19:02 51°26.379 2°54.269 20.0837 0.026566 0.147903 3.944447
2009-09-28 11:20:02 51°26.566 2°54.303 20.0972 0.026566 0.147903 3.944447
2009-09-28 11:21:02 51°26.753 2°54.338 20.104 0.026566 0.147901 3.979271
2009-09-28 11:22:02 51°26.94 2°54.379 20.1245 0.026566 0.147916 3.979271
2009-09-28 11:23:02 51°27.128 2°54.42 20.125 0.026669 0.148473 3.979271
2009-09-28 11:24:02 51°27.315 2°54.469 20.1688 0.026566 0.147885 4.014096
2009-09-28 11:25:02 51°27.503 2°54.518 20.1673 0.026566 0.147883 4.014096
2009-09-28 11:26:02 51°27.69 2°54.566 20.1611 0.026566 0.147862 4.014096
2009-09-28 11:27:02 51°27.879 2°54.613 20.1878 0.026566 0.147852 4.04892
2009-09-28 11:28:02 51°28.068 2°54.658 20.2142 0.026566 0.147855 4.04892
2009-09-28 11:29:02 51°28.259 2°54.703 20.2315 0.026566 0.147852 4.04892
2009-09-28 11:30:02 51°28.449 2°54.749 20.2577 0.026669 0.148421 4.04892
2009-09-28 11:31:02 51°28.638 2°54.796 20.2579 0.026669 0.148406 4.083744
2009-09-28 11:32:02 51°28.827 2°54.841 20.2666 0.026566 0.147829 4.083744
2009-09-28 11:33:02 51°29.015 2°54.886 20.2794 0.026669 0.148398 4.083744
2009-09-28 11:34:02 51°29.204 2°54.929 20.2873 0.026669 0.148396 4.118568
2009-09-28 11:35:02 51°29.393 2°54.973 20.3207 0.026669 0.148372 4.118568
2009-09-28 11:36:02 51°29.582 2°55.015 20.3325 0.026669 0.148372 4.153392
2009-09-28 11:37:02 51°29.77 2°55.056 20.3465 0.026669 0.148367 4.153392
2009-09-28 11:38:02 51°29.959 2°55.101 20.368 0.026669 0.14836 4.153392
2009-09-28 11:39:02 51°30.148 2°55.144 20.3698 0.026669 0.148352 4.188216
2009-09-28 11:40:02 51°30.339 2°55.186 20.3762 0.026669 0.148354 4.188216
2009-09-28 11:41:02 51°30.529 2°55.227 20.4042 0.026669 0.148365 4.188216
2009-09-28 11:42:02 51°30.721 2°55.272 20.4005 0.026669 0.148372 4.188216
2009-09-28 11:43:02 51°30.912 2°55.312 20.4222 0.026669 0.148365 4.22304
2009-09-28 11:44:02 51°31.102 2°55.353 20.4176 0.026669 0.148367 4.22304
2009-09-28 11:45:02 51°31.293 2°55.392 20.4684 0.026772 0.148931 4.22304
2009-09-28 11:46:02 51°31.485 2°55.432 20.4692 0.026772 0.148924 4.22304
2009-09-28 11:47:02 51°31.678 2°55.474 20.4881 0.026875 0.149501 4.257864
2009-09-28 11:48:02 51°31.87 2°55.516 20.5048 0.026772 0.148924 4.257864
2009-09-28 11:49:02 51°32.063 2°55.557 20.5051 0.026772 0.148918 4.257864
2009-09-28 11:50:02 51°32.254 2°55.603 20.4961 0.026875 0.149498 4.292688
2009-09-28 11:51:02 51°32.429 2°55.649 20.5586 0.026978 0.150062 4.292688
2009-09-28 11:52:02 51°32.521 2°55.69 20.5764 0.027595 0.153543 4.292688
2009-09-28 11:53:02 51°32.576 2°55.721 20.5923 0.027904 0.15527 4.292688
2009-09-28 11:54:02 51°32.613 2°55.742 20.5809 0.028007 0.155826 4.327512
2009-09-28 11:55:02 51°32.639 2°55.761 20.6268 0.028007 0.155829 4.327512
2009-09-28 11:56:02 51°32.662 2°55.78 20.6455 0.028315 0.157568 4.327512
2009-09-28 11:57:02 51°32.695 2°55.764 20.6803 0.028727 0.15992 4.362336
2009-09-28 11:58:02 51°32.697 2°55.722 20.6649 0.028213 0.156948 4.362336
2009-09-28 11:59:02 51°32.686 2°55.71 20.6919 0.027904 0.155191 4.39716
2009-09-28 12:00:02 51°32.67 2°55.707 20.6931 0.027698 0.154065 4.39716
2009-09-28 12:01:02 51°32.651 2°55.703 20.7054 0.027904 0.155216 4.39716
2009-09-28 12:02:03 51°32.633 2°55.694 20.7246 0.028007 0.155802 4.39716
2009-09-28 12:03:14 51°32.614 2°55.679 20.7094 0.027698 0.15406 4.39716
2009-09-28 12:04:14 51°32.602 2°55.66 20.7392 0.027698 0.154038 4.431984
2009-09-28 12:05:14 51°32.597 2°55.636 20.7656 0.027801 0.1546 4.431984
2009-09-28 12:06:14 51°32.598 2°55.611 20.7801 0.02811 0.156307 4.431984
2009-09-28 12:07:14 51°32.609 2°55.567 20.8119 0.028521 0.158698 4.431984
2009-09-28 12:08:14 51°32.601 2°55.378 20.7771 0.027801 0.154584 4.466808
2009-09-28 12:09:14 51°32.574 2°55.165 20.8214 0.027595 0.153426 4.466808
2009-09-28 12:10:14 51°32.546 2°55.076 20.8275 0.027904 0.155183 4.466808
2009-09-28 12:11:14 51°32.518 2°55.048 20.8766 0.028007 0.155748 4.466808
2009-09-28 12:12:14 51°32.498 2°55.043 20.8623 0.027801 0.154613 4.501632
2009-09-28 12:13:14 51°32.485 2°55.046 20.8867 0.02811 0.156331 4.501632
2009-09-28 12:14:14 51°32.479 2°55.054 20.887 0.027904 0.155181 4.501632
2009-09-28 12:15:14 51°32.476 2°55.065 20.9099 0.028315 0.157488 4.501632
2009-09-28 12:16:14 51°32.474 2°55.079 20.9306 0.028315 0.157557 4.536456
2009-09-28 12:17:14 51°32.473 2°55.097 20.945 0.02811 0.156449 4.536456
2009-09-28 12:18:14 51°32.473 2°55.118 20.9478 0.028418 0.158155 4.536456
2009-09-28 12:19:14 51°32.476 2°55.142 20.9688 0.028213 0.157036 4.536456
2009-09-28 12:20:14 51°32.479 2°55.166 20.9901 0.028315 0.157606 4.536456
2009-09-28 12:21:14 51°32.483 2°55.188 20.9959 0.028213 0.15703 4.57128
2009-09-28 12:22:14 51°32.488 2°55.211 21.0071 0.02811 0.156495 4.57128
2009-09-28 12:23:14 51°32.492 2°55.235 21.0342 0.028418 0.158235 4.57128
2009-09-28 12:24:14 51°32.496 2°55.259 21.0504 0.028418 0.158202 4.57128
2009-09-28 12:25:14 51°32.5 2°55.281 21.0496 0.028315 0.15765 4.57128
2009-09-28 12:26:15 51°32.504 2°55.303 21.063 0.028315 0.157686 4.606104
2009-09-28 12:27:14 51°32.507 2°55.325 21.0865 0.028315 0.1577 4.606104
2009-09-28 12:28:14 51°32.51 2°55.348 21.1138 0.028418 0.158271 4.606104
2009-09-28 12:29:14 51°32.513 2°55.371 21.1334 0.028418 0.158265 4.606104
2009-09-28 12:30:14 51°32.517 2°55.395 21.1321 0.028521 0.15882 4.606104
2009-09-28 12:31:14 51°32.52 2°55.42 21.1425 0.028624 0.159425 4.640929
2009-09-28 12:32:14 51°32.523 2°55.443 21.1687 0.028521 0.158889 4.640929
2009-09-28 12:33:14 51°32.517 2°55.463 21.1583 0.028007 0.155995 4.640929
2009-09-28 12:34:14 51°32.488 2°55.44 21.174 0.027492 0.153187 4.640929
2009-09-28 12:35:14 51°32.496 2°55.328 21.2339 0.028521 0.158981 4.640929
2009-09-28 12:36:14 51°32.592 2°55.127 21.1865 0.027492 0.153173 4.640929
2009-09-28 12:37:14 51°32.734 2°54.945 21.2264 0.027492 0.153179 4.640929
2009-09-28 12:38:14 51°32.912 2°54.862 21.2559 0.027286 0.152021 4.675753
2009-09-28 12:39:14 51°33.102 2°54.861 21.2232 0.027183 0.15143 4.675753
2009-09-28 12:40:14 51°33.277 2°54.981 21.2631 0.027081 0.150841 4.675753
2009-09-28 12:41:14 51°33.362 2°55.165 21.2755 0.028727 0.160161 4.675753
2009-09-28 12:42:14 51°33.359 2°55.269 21.3109 0.029036 0.161918 4.710577
2009-09-28 12:43:14 51°33.34 2°55.328 21.3509 0.029036 0.161895 4.710577
2009-09-28 12:44:14 51°33.325 2°55.366 21.3615 0.029036 0.161864 4.710577
2009-09-28 12:45:14 51°33.315 2°55.399 21.3617 0.029036 0.161841 4.710577
2009-09-28 12:46:14 51°33.308 2°55.428 21.3814 0.029242 0.162997 4.710577
2009-09-28 12:47:14 51°33.303 2°55.454 21.3907 0.029139 0.162385 4.710577
2009-09-28 12:48:14 51°33.3 2°55.478 21.3658 0.029139 0.162385 4.745401
2009-09-28 12:49:14 51°33.307 2°55.498 21.4141 0.029344 0.163509 4.745401
2009-09-28 12:50:14 51°33.321 2°55.514 21.4064 0.029447 0.164124 4.710577
2009-09-28 12:51:14 51°33.331 2°55.529 21.4458 0.029447 0.164107 4.745401
2009-09-28 12:52:14 51°33.338 2°55.548 21.4653 0.029344 0.163537 4.745401
2009-09-28 12:53:14 51°33.342 2°55.57 21.453 0.029447 0.164159 4.745401
2009-09-28 12:54:14 51°33.348 2°55.592 21.4906 0.02955 0.164714 4.745401
2009-09-28 12:55:14 51°33.356 2°55.61 21.4951 0.02955 0.164743 4.745401
2009-09-28 12:56:14 51°33.365 2°55.629 21.516 0.029653 0.165353 4.780225
2009-09-28 12:57:14 51°33.37 2°55.65 21.5179 0.02955 0.164728 4.780225
2009-09-28 12:58:14 51°33.373 2°55.672 21.5308 0.02955 0.164757 4.780225
2009-09-28 12:59:14 51°33.373 2°55.695 21.5467 0.029344 0.163592 4.780225
2009-09-28 13:00:14 51°33.373 2°55.718 21.549 0.02955 0.164763 4.780225
2009-09-28 13:01:14 51°33.372 2°55.74 21.5583 0.029447 0.164179 4.780225
2009-09-28 13:02:14 51°33.371 2°55.765 21.5815 0.029653 0.165379 4.780225
2009-09-28 13:03:14 51°33.37 2°55.789 21.6071 0.029447 0.164248 4.815049
2009-09-28 13:04:14 51°33.369 2°55.814 21.6106 0.029653 0.16542 4.780225
2009-09-28 13:05:14 51°33.369 2°55.84 21.6025 0.029653 0.165408 4.780225
2009-09-28 13:06:14 51°33.369 2°55.866 21.6304 0.029653 0.16544 4.780225
2009-09-28 13:07:14 51°33.369 2°55.89 21.6436 0.029859 0.166563 4.780225
2009-09-28 13:08:14 51°33.371 2°55.915 21.6828 0.029859 0.166575 4.780225
2009-09-28 13:09:14 51°33.372 2°55.939 21.6905 0.029756 0.165996 4.780225
2009-09-28 13:10:14 51°33.374 2°55.963 21.7059 0.029859 0.166581 4.780225
2009-09-28 13:11:14 51°33.375 2°55.988 21.704 0.029859 0.166607 4.815049
2009-09-28 13:12:14 51°33.377 2°56.012 21.7449 0.029756 0.166011 4.815049
2009-09-28 13:13:14 51°33.376 2°56.036 21.7167 0.029447 0.164265 4.815049
2009-09-28 13:14:14 51°33.376 2°56.061 21.7596 0.029859 0.166631 4.815049
2009-09-28 13:15:14 51°33.376 2°56.085 21.7443 0.029859 0.166651 4.815049
2009-09-28 13:16:14 51°33.375 2°56.108 21.7957 0.029962 0.167257 4.815049
2009-09-28 13:17:14 51°33.374 2°56.131 21.7823 0.029859 0.166651 4.815049
2009-09-28 13:18:14 51°33.373 2°56.154 21.7989 0.029859 0.166625 4.815049
2009-09-28 13:19:14 51°33.373 2°56.178 21.8323 0.029962 0.167219 4.815049
2009-09-28 13:20:14 51°33.374 2°56.2 21.8543 0.029962 0.167243 4.815049
2009-09-28 13:21:14 51°33.375 2°56.223 21.8642 0.030065 0.167834 4.815049
2009-09-28 13:22:14 51°33.363 2°56.254 21.8867 0.030374 0.169609 4.849873
2009-09-28 13:23:14 51°33.344 2°56.322 21.8897 0.030374 0.169624 4.815049
2009-09-28 13:24:14 51°33.359 2°56.395 21.8809 0.030374 0.169612 4.815049
2009-09-28 13:25:14 51°33.379 2°56.437 21.9021 0.030168 0.168422 4.849873
2009-09-28 13:26:14 51°33.398 2°56.474 21.9183 0.029962 0.167222 4.815049
2009-09-28 13:27:14 51°33.415 2°56.526 21.9139 0.029962 0.16724 4.815049
2009-09-28 13:28:14 51°33.411 2°56.594 21.9218 0.030065 0.167846 4.815049
2009-09-28 13:29:14 51°33.395 2°56.652 21.9744 0.029859 0.166678 4.849873
2009-09-28 13:30:14 51°33.377 2°56.702 21.9648 0.030168 0.168434 4.849873
2009-09-28 13:31:14 51°33.359 2°56.747 21.9592 0.030065 0.167819 4.849873
2009-09-28 13:32:15 51°33.34 2°56.789 22.0118 0.029859 0.166628 4.849873
2009-09-28 13:33:14 51°33.321 2°56.829 22.0006 0.030065 0.167816 4.849873
2009-09-28 13:34:14 51°33.307 2°56.88 22.0439 0.030168 0.168411 4.849873
2009-09-28 13:35:14 51°33.311 2°56.95 22.0908 0.030374 0.1696 4.849873
2009-09-28 13:36:14 51°33.358 2°56.979 22.0803 0.029036 0.161972 4.884697
2009-09-28 13:37:14 51°33.384 2°56.913 22.0692 0.028007 0.156186 4.954345
2009-09-28 13:38:14 51°33.371 2°56.727 22.0629 0.027389 0.152693 4.954345
2009-09-28 13:39:14 51°33.379 2°56.458 22.0691 0.027389 0.152698 4.954345
2009-09-28 13:40:14 51°33.389 2°56.165 22.0812 0.027286 0.152111 4.954345
2009-09-28 13:41:14 51°33.398 2°55.87 22.0699 0.027389 0.15268 4.954345
2009-09-28 13:42:14 51°33.407 2°55.575 22.1015 0.027183 0.151535 4.954345
2009-09-28 13:43:14 51°33.407 2°55.281 22.1381 0.027389 0.15269 4.954345
2009-09-28 13:44:14 51°33.374 2°54.994 22.1772 0.028315 0.157954 4.954345
2009-09-28 13:45:14 51°33.245 2°54.807 22.143 0.027801 0.155054 4.989169
2009-09-28 13:46:14 51°33.061 2°54.77 22.1196 0.027801 0.155089 4.989169
2009-09-28 13:47:14 51°32.871 2°54.788 22.1704 0.027595 0.153905 4.989169
2009-09-28 13:48:14 51°32.682 2°54.79 22.1507 0.028315 0.15799 4.989169
2009-09-28 13:49:14 51°32.493 2°54.774 22.1861 0.029139 0.162633 4.989169
2009-09-28 13:50:15 51°32.299 2°54.756 22.2015 0.02811 0.156854 4.989169
2009-09-28 13:51:14 51°32.112 2°54.733 22.1967 0.028727 0.16035 4.989169
2009-09-28 13:52:14 51°31.926 2°54.668 22.2328 0.029447 0.164378 5.023993
2009-09-28 13:53:14 51°31.741 2°54.596 22.1813 0.028315 0.158129 12.998701
2009-09-28 13:54:14 51°31.557 2°54.525 22.2074 0.028933 0.161541 11.257499
2009-09-28 13:55:14 51°31.373 2°54.455 22.2226 0.028521 0.159199 10.073481
2009-09-28 13:56:14 51°31.188 2°54.385 22.2489 0.029036 0.162097 9.411824
2009-09-28 13:57:14 51°31.003 2°54.311 22.2678 0.027595 0.153972 9.168055
2009-09-28 13:58:14 51°30.818 2°54.24 22.279 0.027595 0.153956 9.237704
2009-09-28 13:59:14 51°30.632 2°54.165 22.3254 0.030168 0.1685 9.620768
2009-09-28 14:00:14 51°30.446 2°54.093 22.3928 0.029653 0.165578 10.143129
2009-09-28 14:01:14 51°30.26 2°54.019 22.3879 0.028933 0.161507 10.66549
2009-09-28 14:02:14 51°30.073 2°53.941 22.3905 0.027492 0.153417 11.257499
2009-09-28 14:03:14 51°29.883 2°53.869 22.3978 0.027698 0.154568 11.710211
2009-09-28 14:04:14 51°29.693 2°53.797 22.407 0.027904 0.155704 12.162924
2009-09-28 14:05:14 51°29.503 2°53.736 22.4085 0.027904 0.155699 12.615637
2009-09-28 14:06:14 51°29.31 2°53.691 22.4187 0.027698 0.154522 12.998701
2009-09-28 14:07:14 51°29.117 2°53.645 22.4262 0.027904 0.155677 13.381766
2009-09-28 14:08:14 51°28.925 2°53.598 22.441 0.027492 0.15336 13.730007
2009-09-28 14:09:14 51°28.732 2°53.549 22.4461 0.027492 0.153344 14.113071
2009-09-28 14:10:14 51°28.538 2°53.501 22.4457 0.028315 0.158007 14.426488
2009-09-28 14:11:14 51°28.345 2°53.452 22.458 0.02811 0.156824 14.70508
2009-09-28 14:12:14 51°28.152 2°53.402 22.4577 0.028315 0.157982 15.088145
2009-09-28 14:13:14 51°27.959 2°53.354 22.4687 0.029344 0.16377 15.401561
2009-09-28 14:14:14 51°27.768 2°53.305 22.4904 0.027698 0.154474 15.680154
2009-09-28 14:15:14 51°27.576 2°53.255 22.4919 0.027904 0.155641 16.028394
2009-09-28 14:16:14 51°27.387 2°53.179 22.5081 0.02811 0.156785 16.237338
2009-09-28 14:17:14 51°27.202 2°53.079 22.5153 0.028007 0.156224 16.515931
2009-09-28 14:18:14 51°27.015 2°52.983 22.526 0.027698 0.154493 16.724875
2009-09-28 14:19:14 51°26.83 2°52.888 22.5215 0.028007 0.156227 16.933819
2009-09-28 14:20:14 51°26.639 2°52.83 22.5521 0.028315 0.157951 17.10794
2009-09-28 14:21:14 51°26.444 2°52.829 22.5526 0.027595 0.153951 17.316884
2009-09-28 14:22:14 51°26.248 2°52.832 22.5622 0.027492 0.153347 17.491004
2009-09-28 14:23:14 51°26.051 2°52.839 22.5627 0.028727 0.160288 17.630301
2009-09-28 14:24:14 51°25.857 2°52.878 22.5797 0.027389 0.152754 17.804421
2009-09-28 14:25:14 51°25.663 2°52.917 22.5927 0.027595 0.153892 17.943717
2009-09-28 14:26:14 51°25.471 2°52.96 22.5978 0.027492 0.153307 18.117837
2009-09-28 14:27:14 51°25.278 2°53.006 22.5963 0.02811 0.156788 18.222309
2009-09-28 14:28:14 51°25.086 2°53.043 22.6183 0.028213 0.157352 18.326782
2009-09-28 14:29:14 51°24.892 2°53.074 22.6338 0.028624 0.159657 18.466078
2009-09-28 14:30:14 51°24.701 2°53.128 22.6298 0.027492 0.153296 18.605374
2009-09-28 14:31:14 51°24.516 2°53.224 22.6143 0.027183 0.151546 18.74467
2009-09-28 14:32:14 51°24.333 2°53.328 22.6434 0.027183 0.151559 18.814318
2009-09-28 14:33:14 51°24.147 2°53.423 22.6479 0.027286 0.15213 18.953615
2009-09-28 14:34:15 51°23.959 2°53.525 22.646 0.027698 0.154482 19.058087
2009-09-28 14:35:14 51°23.783 2°53.64 22.666 0.027286 0.152159 19.197383
2009-09-28 14:36:14 51°23.602 2°53.757 22.6729 0.027904 0.155628 19.267031
2009-09-28 14:37:14 51°23.422 2°53.878 22.6929 0.027389 0.152725 19.406327
2009-09-28 14:38:14 51°23.242 2°53.994 22.6895 0.027595 0.153878 19.545624
2009-09-28 14:39:14 51°23.05 2°54.033 22.7145 0.029139 0.162604 19.580448
2009-09-28 14:40:14 51°22.856 2°54.027 22.7207 0.028007 0.156227 19.719744
2009-09-28 14:41:14 51°22.662 2°54.009 22.7298 0.027698 0.154504 19.824216
2009-09-28 14:42:14 51°22.469 2°53.978 22.7388 0.028933 0.161422 19.893864
2009-09-28 14:43:14 51°22.275 2°53.935 22.7507 0.027801 0.155067 20.03316
2009-09-28 14:44:14 51°22.08 2°53.893 22.7552 0.028007 0.156221 20.137632
2009-09-28 14:45:14 51°21.887 2°53.842 22.7744 0.027904 0.155663 20.276929
2009-09-28 14:46:14 51°21.695 2°53.777 22.7574 0.027801 0.155083 20.381401
2009-09-28 14:47:14 51°21.503 2°53.713 22.7659 0.027389 0.15277 20.485873
2009-09-28 14:48:14 51°21.313 2°53.631 22.7958 0.027698 0.154517 20.555521
2009-09-28 14:49:14 51°21.124 2°53.54 22.7898 0.027492 0.153358 20.659993
2009-09-28 14:50:14 51°20.934 2°53.457 22.7949 0.027698 0.15452 20.764465
2009-09-28 14:51:14 51°20.742 2°53.385 22.8071 0.027801 0.155108 20.834113
2009-09-28 14:52:15 51°20.546 2°53.31 22.8015 0.027698 0.154539 20.97341
2009-09-28 14:53:14 51°20.356 2°53.238 22.8241 0.027389 0.152805 21.077882
2009-09-28 14:54:15 51°20.16 2°53.166 22.8298 0.027595 0.153967 21.14753
2009-09-28 14:55:14 51°19.969 2°53.098 22.8457 0.027801 0.155113 21.217178
2009-09-28 14:56:14 51°19.775 2°53.027 22.8495 0.02811 0.15684 21.32165
2009-09-28 14:57:14 51°19.581 2°52.957 22.8555 0.028007 0.156263 21.426122
2009-09-28 14:58:14 51°19.389 2°52.886 22.8596 0.027801 0.155108 21.565419
2009-09-28 14:59:15 51°19.192 2°52.815 22.8576 0.028418 0.158573 21.600243
2009-09-28 15:00:14 51°19.004 2°52.747 22.8589 0.028007 0.156276 21.704715
2009-09-28 15:01:15 51°18.81 2°52.677 22.8994 0.027389 0.152821 21.774363
2009-09-28 15:02:14 51°18.621 2°52.608 22.9003 0.027286 0.15222 21.913659
2009-09-28 15:03:14 51°18.43 2°52.538 22.9026 0.02811 0.156865 21.948483
2009-09-28 15:04:14 51°18.239 2°52.47 22.9172 0.027698 0.154549 22.052955
2009-09-28 15:05:15 51°18.044 2°52.401 22.8822 0.027389 0.152813 22.157428
2009-09-28 15:06:14 51°17.856 2°52.333 22.928 0.027183 0.151667 22.2619
2009-09-28 15:07:14 51°17.664 2°52.264 22.9533 0.027595 0.153988 22.331548
2009-09-28 15:08:15 51°17.467 2°52.205 22.9507 0.027492 0.15343 22.401196
2009-09-28 15:09:14 51°17.274 2°52.206 22.9485 0.027595 0.154034 22.505668
2009-09-28 15:10:15 51°17.075 2°52.235 22.9741 0.027698 0.154617 22.575316
2009-09-28 15:11:14 51°16.897 2°52.339 22.9715 0.027286 0.152287 22.644964
2009-09-28 15:12:15 51°16.724 2°52.487 22.9632 0.028007 0.15635 22.749436
2009-09-28 15:13:14 51°16.56 2°52.635 22.9816 0.027286 0.15231 22.819085
2009-09-28 15:14:14 51°16.389 2°52.778 23.0015 0.027183 0.151707 22.923557
2009-09-28 15:15:14 51°16.215 2°52.907 22.9972 0.027286 0.152284 22.993205
2009-09-28 15:16:14 51°16.04 2°53.033 23.0107 0.027286 0.152284 23.097677
2009-09-28 15:17:14 51°15.864 2°53.163 23.0282 0.027081 0.151101 23.167325
2009-09-28 15:18:14 51°15.69 2°53.292 23.0299 0.026978 0.150511 23.271797
2009-09-28 15:19:15 51°15.527 2°53.46 23.0478 0.026978 0.150567 23.306621
2009-09-28 15:20:14 51°15.375 2°53.632 23.0486 0.026875 0.149943 23.411093
2009-09-28 15:21:15 51°15.228 2°53.792 23.0615 0.027904 0.155759 23.480742
2009-09-28 15:22:14 51°15.081 2°53.958 23.0629 0.027183 0.151699 23.585214
2009-09-28 15:23:14 51°14.925 2°54.136 23.067 0.027183 0.151704 23.654862
2009-09-28 15:24:15 51°14.768 2°54.321 23.0478 0.027183 0.151673 23.72451
2009-09-28 15:25:14 51°14.629 2°54.523 23.0731 0.026875 0.149959 23.828982
2009-09-28 15:26:15 51°14.505 2°54.758 23.1211 0.026978 0.150514 23.89863
2009-09-28 15:27:14 51°14.394 2°54.992 23.0995 0.026978 0.150514 23.968278
2009-09-28 15:28:15 51°14.279 2°55.224 23.1069 0.026875 0.149904 24.107575
2009-09-28 15:29:14 51°14.176 2°55.361 23.1145 0.026875 0.149959 24.142399
2009-09-28 15:30:14 51°14.072 2°55.444 23.1259 0.027183 0.151702 24.246871
2009-09-28 15:31:14 51°13.981 2°55.512 23.1352 0.027183 0.151688 24.316519
2009-09-28 15:32:14 51°13.917 2°55.561 23.1483 0.027286 0.152273 24.386167
2009-09-28 15:33:18 51°13.837 2°55.62 23.1692 0.027904 0.155742 24.455815
2009-09-28 15:34:18 51°13.763 2°55.707 23.1738 0.02811 0.15689 24.525463
2009-09-28 15:35:18 51°13.71 2°55.806 23.1793 0.028007 0.156298 24.629935
2009-09-28 15:36:18 51°13.679 2°55.892 23.1975 0.028213 0.157451 24.699583
2009-09-28 15:37:18 51°13.672 2°55.931 23.1663 0.027904 0.155685 24.769232
2009-09-28 15:38:18 51°13.669 2°55.943 23.2182 0.028213 0.157423 24.83888
2009-09-28 15:39:18 51°13.664 2°55.955 23.2192 0.028007 0.156265 24.908528
2009-09-28 15:40:18 51°13.663 2°55.959 23.2256 0.028315 0.157998 24.978176